Wind_Speed
15 14 15 15 16 16 15 15 15 16 15 15 15 15 15 14 14 15 16 16 17 17 18 18 18 19 22 23 24 24 24 24 23 22 21 21 21 20 19 18 16 16 16 16 16 14 14 13 14 13 14 14 15 15 15 16 17 17 18 18 19 21 22 22 23 22 19 18 18 17 16 15 15 16 16 16 16 16 16 16 17 18 17 17 16
19 16 15 15 16 15 15 15 15 16 15 15 15 15 15 14 14 15 15 15 15 16 16 16 17 18 20 21 21 22 22 22 21 20 20 20 20 20 19 18 17 16 16 17 16 15 14 14 14 14 14 15 15 16 17 17 17 19 20 20 20 21 21 21 22 22 19 18 17 16 14 14 14 15 15 15 15 15 15 15 16 17 17 16 16
19 17 15 15 16 15 15 15 16 16 16 15 15 16 15 14 14 15 14 14 14 15 15 15 15 16 18 19 20 20 20 20 20 19 19 19 19 19 19 18 17 16 16 17 16 16 15 15 15 15 15 15 16 17 17 17 18 19 20 20 20 19 19 19 21 22 21 18 17 15 14 14 14 14 15 15 14 14 15 15 15 16 16 15 15
19 17 15 15 15 14 15 15 16 16 16 16 15 16 15 15 14 14 14 13 13 14 15 15 14 15 16 17 18 18 18 18 17 17 17 17 17 18 17 17 17 16 16 16 16 15 15 16 16 15 16 16 16 17 17 18 19 19 19 19 17 18 19 20 21 22 21 19 17 16 15 15 15 14 14 14 14 15 15 14 14 14 14 14 14
20 17 15 15 14 14 14 15 15 16 17 16 16 16 16 15 14 14 14 13 12 13 14 14 13 13 14 15 16 16 16 15 15 15 15 15 16 16 16 16 16 15 15 15 15 15 15 16 17 17 16 16 16 17 18 18 19 18 18 18 17 18 20 20 20 20 20 18 16 16 16 16 15 14 13 13 14 14 14 14 14 13 14 14 14
20 18 16 15 13 13 14 14 15 16 16 16 16 16 16 15 14 14 14 13 12 12 13 13 13 12 12 13 14 15 15 14 14 13 13 14 15 15 15 15 15 15 14 15 15 16 16 16 18 18 17 17 17 18 19 19 19 19 18 17 18 18 18 18 18 18 18 17 15 16 16 15 15 13 12 12 12 13 14 14 13 13 13 13 13
19 17 15 15 13 13 13 13 14 15 16 16 16 16 16 16 15 14 14 14 12 12 12 13 13 12 12 12 12 12 13 13 14 13 12 14 15 14 14 14 14 14 14 14 15 16 16 16 18 18 18 18 18 19 20 21 20 21 20 18 18 17 16 15 15 16 17 16 17 17 17 15 15 14 11 11 11 12 13 13 13 12 12 12 12
18 16 15 14 13 13 13 13 13 14 15 15 15 16 16 16 15 14 15 15 13 11 11 12 12 12 12 11 11 11 11 12 12 12 12 13 14 13 13 14 13 13 13 13 15 18 17 15 17 18 18 18 18 19 20 21 21 22 21 19 18 17 16 14 14 15 16 17 18 18 16 15 14 13 11 10 10 10 11 12 12 12 12 12 12
18 15 13 13 12 13 13 13 13 13 13 15 15 15 16 16 15 15 15 15 14 12 11 11 11 11 11 11 10 10 10 10 11 11 10 11 12 12 12 13 13 13 13 12 16 19 18 16 17 19 19 18 18 19 21 22 22 21 21 18 16 16 15 14 14 14 14 16 17 17 15 15 14 13 11 10 10 9 10 11 11 11 11 11 11
17 14 13 11 12 12 12 13 13 12 12 14 16 15 15 15 15 15 15 16 15 14 12 11 11 11 11 10 10 9 9 9 10 10 10 10 10 11 11 12 12 12 12 12 16 20 19 18 19 20 20 19 18 19 22 23 22 20 19 16 13 12 14 13 12 13 14 13 14 15 16 16 14 12 11 10 9 8 9 10 11 11 11 10 11
15 14 12 11 12 12 13 13 14 13 12 13 15 15 14 14 14 15 15 15 15 14 13 11 11 11 10 10 9 9 9 9 9 9 10 10 11 11 10 11 12 12 11 11 16 20 20 21 21 21 21 20 19 19 21 21 20 18 15 13 10 8 10 12 13 14 13 12 12 13 15 15 14 11 10 9 7 7 9 10 10 10 10 10 11
16 14 12 12 12 12 13 12 13 13 12 12 13 14 13 13 13 14 15 15 15 14 13 11 11 11 10 10 9 9 9 9 10 10 9 9 11 12 10 10 11 11 11 11 15 19 20 21 22 21 20 18 17 17 17 17 16 14 11 8 7 7 8 10 13 13 12 11 10 11 13 13 12 10 9 8 7 7 9 9 9 9 9 10 10
17 14 13 12 11 12 13 12 11 12 12 11 12 12 12 13 12 13 15 16 16 15 13 12 11 11 10 9 9 9 9 10 10 10 9 9 10 11 10 10 10 11 11 11 13 17 18 19 20 19 18 16 16 15 15 14 13 11 8 5 5 8 8 10 12 11 10 10 9 10 12 11 11 9 8 7 6 8 9 8 8 8 9 9 10
17 15 13 12 12 12 12 13 12 12 12 12 12 12 11 12 12 12 14 15 17 16 15 12 12 11 10 9 8 9 9 10 10 10 10 10 10 9 9 9 9 11 11 10 12 15 15 17 18 18 17 15 14 13 12 12 10 9 7 5 5 8 9 10 11 9 9 9 9 10 10 11 11 9 8 7 8 9 8 7 6 7 8 8 9
17 15 14 14 14 12 12 13 13 12 13 12 11 11 11 11 12 12 11 14 16 17 16 13 12 11 10 9 8 9 9 10 10 10 10 10 10 9 9 9 9 10 10 10 11 13 13 14 15 16 16 14 14 13 11 10 9 8 7 6 5 8 10 9 9 7 8 9 9 9 9 11 11 9 8 7 8 8 7 7 6 6 7 7 8
16 15 16 15 15 14 14 13 13 13 12 12 11 10 11 12 11 10 10 14 16 16 16 14 12 11 10 10 9 9 9 10 10 10 10 10 10 10 9 9 9 10 9 9 9 10 11 13 14 14 14 14 14 13 12 10 9 8 8 8 7 8 11 9 7 6 6 8 9 9 9 10 10 9 8 7 7 7 6 6 5 5 6 6 7
16 16 16 16 15 15 14 13 13 12 12 11 11 11 11 11 11 9 10 15 17 16 15 14 12 11 10 9 8 8 9 10 10 10 10 11 11 10 9 9 10 10 9 8 8 9 10 12 13 12 12 13 13 13 13 11 10 10 8 7 8 8 10 10 7 5 5 7 8 8 8 9 10 9 7 7 7 6 6 6 4 5 6 6 6
16 17 16 15 14 14 14 13 12 11 11 11 11 11 11 11 10 9 10 14 16 15 15 13 12 10 10 9 8 8 9 9 10 10 11 11 11 10 10 10 11 10 9 8 7 8 10 12 13 12 11 12 13 13 12 12 10 10 7 6 7 8 9 10 9 7 6 6 7 6 7 7 9 9 7 6 6 6 6 5 4 5 5 5 5
16 16 14 13 13 13 13 11 9 9 9 10 10 10 10 10 10 10 11 13 15 14 14 13 11 10 9 8 7 8 9 9 10 10 10 11 10 10 10 11 10 10 9 7 7 8 10 12 13 12 11 11 12 12 12 11 10 8 7 4 6 8 9 10 11 9 7 6 6 6 6 6 7 8 7 6 6 6 6 5 4 4 4 4 4
16 16 13 12 11 11 11 9 7 7 8 9 9 10 10 9 10 10 11 13 14 13 14 13 11 10 9 8 7 7 8 9 10 10 10 10 9 9 10 9 10 9 8 6 7 8 9 11 13 13 12 10 11 12 12 11 9 7 6 4 5 8 9 11 12 10 8 6 6 6 5 5 5 6 7 6 7 6 4 4 3 3 3 3 4
17 16 13 11 11 10 9 7 6 7 7 7 8 10 10 10 10 10 11 12 13 13 13 12 11 11 10 8 7 8 9 10 10 10 10 9 8 9 9 8 9 8 7 7 7 8 9 10 12 14 14 11 10 12 13 11 9 8 6 4 6 8 9 12 12 10 9 7 5 5 5 4 4 5 5 6 6 6 5 5 3 2 2 2 3
17 16 13 12 11 10 8 7 6 7 8 7 8 9 10 11 10 10 11 11 11 12 13 12 12 12 11 9 8 9 9 10 11 11 10 9 8 9 9 9 10 8 7 8 8 8 9 11 12 14 15 13 11 11 13 12 10 9 7 5 6 9 9 12 12 10 8 7 5 5 5 4 4 4 3 4 4 5 5 6 4 2 1 2 3
18 17 15 13 11 10 9 8 8 8 8 7 8 8 9 10 11 10 10 11 11 12 12 12 13 13 13 11 11 10 9 8 9 10 9 9 9 9 9 9 10 9 8 8 9 10 10 12 14 15 15 14 12 11 12 13 11 10 9 6 7 11 11 11 11 9 8 6 5 5 4 4 4 3 2 2 3 4 4 6 5 3 2 2 3
19 18 16 14 12 12 11 10 9 9 8 8 9 8 8 9 10 10 10 10 10 10 10 11 14 14 14 13 12 11 10 8 7 7 9 10 10 9 10 10 10 9 9 9 10 11 11 13 14 15 15 15 13 11 11 12 12 11 10 7 7 11 12 11 11 9 8 6 5 5 4 3 3 3 2 2 3 3 3 7 7 4 3 2 3
19 18 17 15 13 12 12 11 10 9 9 9 8 8 8 9 9 10 10 10 9 9 10 10 13 14 14 14 12 11 10 8 6 7 9 12 12 11 11 11 10 9 9 10 11 12 13 14 15 15 15 15 14 12 11 11 12 12 12 9 7 10 13 11 10 9 8 6 5 4 3 2 3 3 3 2 3 3 3 6 7 5 4 2 2
19 18 17 16 14 12 12 12 11 9 8 8 8 8 9 9 10 10 10 10 10 10 10 9 10 12 12 12 12 11 9 8 7 8 10 13 14 13 12 11 10 9 9 10 11 12 13 14 15 15 14 14 13 11 10 10 11 12 13 11 8 9 12 11 10 9 8 7 5 3 2 2 3 3 3 2 3 3 4 5 6 6 5 3 1
19 18 17 16 14 13 12 13 12 10 9 9 9 9 10 10 10 11 10 11 11 10 10 8 8 8 8 11 11 10 9 8 7 8 9 13 15 14 12 11 10 9 8 9 10 12 13 14 14 14 13 12 11 10 9 8 9 10 13 13 10 8 10 11 10 10 9 7 6 3 2 2 3 4 4 3 3 4 5 4 6 6 5 5 3
20 18 17 16 14 13 13 13 12 11 10 10 10 10 11 11 11 10 10 11 12 11 10 8 7 6 5 8 9 9 9 8 8 9 9 12 15 15 14 12 10 9 8 8 9 10 12 13 13 12 11 10 10 9 7 6 6 8 12 14 12 9 9 10 10 11 10 8 7 5 4 3 3 4 4 4 4 4 4 4 6 6 5 5 5
22 20 17 17 16 15 14 13 13 12 12 12 12 11 11 11 10 10 11 11 12 11 10 8 8 7 6 7 8 9 10 9 9 10 10 11 15 17 15 13 11 10 9 9 8 9 10 12 13 11 11 10 9 8 6 5 5 6 11 14 13 10 9 10 10 11 11 10 9 7 5 4 4 5 5 5 5 4 4 4 4 5 5 4 5
24 22 20 19 16 15 14 13 14 13 13 13 12 11 10 10 10 10 11 11 12 12 11 9 8 7 6 7 9 10 11 11 10 10 11 11 13 17 16 14 13 11 11 10 10 10 10 11 12 11 11 10 9 7 6 6 6 7 10 13 13 10 10 10 10 11 12 12 11 9 7 6 6 6 7 6 5 5 5 5 4 4 5 3 4
25 24 21 19 17 15 14 13 14 14 13 12 10 10 9 8 9 10 10 10 11 12 11 10 9 8 7 8 9 10 12 12 10 9 11 12 14 17 17 16 15 13 12 12 11 11 11 12 12 11 11 11 10 8 8 9 9 9 11 13 13 11 11 12 11 11 12 13 12 10 9 8 8 8 8 7 6 6 6 6 5 6 5 4 3
26 24 21 19 16 15 13 13 14 14 13 12 10 9 8 6 5 6 8 8 10 11 10 9 9 9 8 8 9 10 11 11 11 10 10 12 15 18 18 18 17 15 13 12 13 12 13 13 13 12 12 12 12 12 11 12 11 12 13 14 14 13 13 13 13 12 12 14 14 12 11 11 10 10 10 9 8 7 7 8 7 7 6 5 4
24 23 20 18 16 14 14 15 15 14 14 12 11 10 8 6 5 6 6 5 6 8 9 8 7 7 8 9 10 11 11 11 11 10 10 11 14 17 18 18 18 16 14 13 13 13 14 14 13 13 13 14 14 13 12 13 13 13 14 15 16 14 14 14 14 13 13 15 15 14 13 13 13 12 12 11 10 10 9 9 9 9 7 6 5
23 22 20 18 16 15 16 16 15 15 13 12 11 9 8 7 7 8 8 7 5 5 7 7 6 6 7 8 9 9 9 10 11 10 9 10 13 16 18 19 18 17 16 15 14 14 13 13 14 13 13 14 15 15 14 15 15 15 16 18 18 16 16 15 15 15 14 15 16 16 15 15 15 15 14 13 12 12 12 12 11 11 9 8 7
24 23 21 19 17 16 17 17 16 15 13 12 11 9 8 7 7 8 8 6 6 6 5 5 6 6 7 7 7 7 6 6 8 8 8 9 11 13 15 18 19 19 18 17 16 15 14 14 15 14 14 15 17 17 17 17 17 17 18 21 20 19 18 17 16 16 16 16 17 17 16 16 17 17 16 15 14 13 13 14 14 13 11 10 9
26 24 22 20 18 17 17 18 17 16 14 12 11 10 8 7 6 7 7 5 4 5 5 5 5 4 5 5 6 5 4 4 5 6 6 8 10 12 12 14 16 17 17 18 17 17 16 16 15 16 17 18 18 18 17 17 17 18 19 22 23 21 21 20 19 18 17 18 18 18 17 18 18 18 18 17 16 15 15 15 16 15 14 12 11
26 26 24 22 20 19 19 19 18 17 14 13 12 10 10 8 7 7 7 5 3 3 5 6 5 5 4 3 4 4 4 4 4 4 6 7 9 12 12 11 12 12 12 16 18 19 18 18 18 17 16 17 17 16 15 15 16 17 20 23 24 23 23 22 21 20 20 20 19 19 19 18 18 18 19 19 18 17 16 16 17 17 16 15 13
27 26 24 22 21 20 19 19 19 17 14 13 12 11 12 10 9 8 7 6 4 4 6 7 6 5 4 3 3 3 3 4 4 4 4 4 5 8 10 10 10 10 9 12 15 16 17 18 18 16 14 15 16 14 14 14 13 15 19 24 25 25 24 23 23 23 22 22 21 21 20 20 19 19 19 20 20 19 19 18 18 18 18 17 16
29 26 24 22 21 20 20 21 19 17 15 14 13 14 14 11 10 8 7 7 6 6 7 7 6 4 4 4 3 3 3 3 4 3 2 1 1 2 6 10 10 8 8 9 11 12 14 15 15 14 14 14 16 15 15 14 13 13 17 22 25 26 24 23 24 25 24 23 22 22 21 21 20 20 20 20 20 21 21 20 20 20 19 18 18
30 27 25 23 22 21 21 22 21 19 18 17 17 18 16 13 11 9 9 8 8 7 7 7 6 5 4 4 4 3 3 3 3 2 1 1 2 3 3 8 7 4 3 5 7 8 10 12 12 13 14 15 16 17 17 15 14 12 14 19 22 24 23 22 23 24 25 25 24 23 22 21 21 21 21 20 20 21 22 22 22 21 21 20 19
29 28 27 25 23 23 23 24 23 21 21 20 20 20 19 16 13 11 10 9 8 7 7 7 6 5 4 4 4 4 3 3 3 2 0 1 2 3 2 5 3 1 0 1 2 3 5 8 10 12 14 15 17 15 13 13 12 11 11 14 18 21 23 23 23 24 25 26 25 25 23 22 22 22 22 21 21 22 22 22 23 23 23 22 21
31 31 29 27 25 25 24 25 25 24 23 22 22 21 20 17 15 13 11 9 7 6 6 6 4 3 4 4 4 3 3 3 3 3 3 1 2 4 3 1 1 2 2 2 2 1 0 3 7 9 11 12 14 14 11 8 7 8 9 7 9 15 19 22 24 24 25 26 27 27 25 24 23 22 22 22 22 23 23 23 23 24 25 24 23
32 32 30 28 28 27 26 26 26 26 26 24 22 20 19 17 15 14 12 10 8 6 6 5 3 3 3 4 3 1 1 1 2 4 5 4 4 5 5 4 3 2 2 3 5 5 4 3 2 3 6 8 11 13 12 10 8 7 6 4 2 4 9 14 19 23 25 26 27 28 27 26 25 23 23 23 24 24 24 24 25 25 26 26 25
30 33 31 30 30 30 29 28 28 28 28 25 21 19 18 16 14 14 13 11 9 8 6 5 4 3 3 3 2 1 0 2 4 6 6 5 4 4 4 3 4 4 3 4 5 6 6 5 5 5 4 4 7 9 10 11 11 8 4 3 1 1 3 5 9 19 24 25 26 27 27 27 27 26 25 25 25 25 25 25 25 26 27 28 28
31 35 35 34 33 32 31 30 31 30 29 26 22 20 18 16 16 15 13 11 10 9 7 5 5 4 4 3 2 0 1 4 5 5 5 4 3 2 2 2 2 3 4 5 6 6 7 7 5 5 5 3 4 5 6 8 11 14 10 3 1 1 3 1 2 9 16 21 25 26 26 27 27 27 27 28 27 26 26 27 27 27 27 28 29
33 36 37 35 34 34 33 32 32 31 29 26 23 21 19 19 20 19 17 14 12 10 6 5 5 4 4 3 2 2 2 4 4 3 3 3 3 2 1 2 2 2 3 4 5 5 6 7 7 6 6 6 5 4 5 6 5 12 14 9 5 2 3 2 1 3 6 12 19 23 24 25 26 26 28 29 29 28 28 28 28 28 28 28 29
33 32 33 35 35 35 34 33 33 32 29 27 25 23 21 22 23 22 19 17 15 12 7 5 5 4 4 3 3 3 4 4 4 3 3 2 3 2 2 2 3 3 3 3 5 6 6 6 7 7 7 6 5 5 6 8 6 5 8 9 11 10 6 3 1 1 4 5 10 15 18 19 21 23 26 28 29 29 29 29 29 29 29 29 28
30 29 33 35 36 36 35 34 33 32 29 27 26 24 24 26 25 22 19 17 15 12 9 8 6 5 5 4 4 4 4 5 5 3 2 2 2 1 1 2 2 2 2 3 4 5 5 5 5 6 6 7 7 6 6 7 7 7 9 8 7 10 9 8 7 5 2 3 6 10 12 13 14 17 20 24 27 29 30 29 29 30 30 30 29
30 32 35 36 36 36 35 33 32 31 30 27 26 26 27 28 25 22 19 17 15 13 11 10 8 7 6 5 5 5 5 5 4 3 2 1 1 1 2 3 3 4 4 4 5 4 4 5 5 5 6 6 7 6 6 7 6 7 8 8 8 9 9 9 10 9 6 5 4 5 9 11 11 13 14 16 20 24 27 28 29 29 30 30 30
29 31 32 33 34 35 35 34 32 31 30 27 27 28 29 28 25 22 19 18 17 15 14 13 11 10 8 7 6 6 5 5 4 2 1 0 2 4 5 6 6 6 6 6 6 6 6 6 6 6 6 6 6 6 6 6 7 7 7 7 8 9 8 6 6 8 7 7 5 5 9 10 10 15 19 17 15 17 19 22 25 27 29 30 30
23 25 28 31 33 35 35 34 33 32 30 28 30 31 30 29 26 22 20 19 19 18 17 16 15 13 11 9 7 6 6 5 4 3 2 0 3 4 6 7 7 8 8 8 8 8 8 7 7 7 7 7 7 6 6 6 6 6 7 8 8 8 8 6 7 10 8 6 6 5 8 12 12 17 24 24 22 20 18 19 21 23 25 27 28
Wind_Direction
181 174 163 163 162 159 157 154 151 147 144 145 144 143 140 138 136 132 128 122 119 119 117 113 113 115 116 119 119 119 120 121 120 120 119 118 117 117 117 115 114 113 113 111 109 110 113 118 121 123 124 123 124 125 125 125 125 124 120 118 116 115 115 112 109 110 109 108 106 107 107 103 103 105 106 105 102 97 96 96 97 94 91 87 82
177 171 164 162 162 160 159 157 155 151 147 147 145 146 143 141 140 136 132 124 121 120 121 117 115 117 118 120 120 120 120 121 120 120 119 118 119 119 119 116 114 114 113 109 106 107 113 120 120 122 122 122 123 123 125 124 126 126 122 120 119 117 115 111 110 110 111 111 109 109 107 101 102 105 104 101 97 95 95 95 95 94 93 89 84
169 167 164 161 163 162 160 160 158 155 152 149 147 148 146 144 144 141 137 128 124 124 125 122 118 120 121 121 121 121 121 121 121 121 121 121 122 121 119 116 115 113 112 109 106 104 109 118 118 120 120 121 121 121 122 124 128 127 126 125 120 117 118 115 113 113 113 114 112 110 106 103 103 103 102 99 97 95 93 90 88 89 90 88 88
168 165 162 161 163 163 162 162 161 160 156 153 150 151 149 147 148 146 142 134 128 128 129 125 121 122 125 125 123 122 120 121 121 122 122 123 123 121 119 116 115 112 110 112 110 103 108 118 117 117 120 119 121 121 122 125 128 126 127 126 121 123 127 126 123 121 121 121 119 113 107 106 104 103 103 101 98 95 91 89 88 87 88 87 86
168 164 161 162 164 165 164 165 164 163 160 156 154 153 152 152 152 150 146 141 134 132 131 127 122 121 126 126 125 125 122 121 121 122 123 125 125 124 121 118 114 111 109 113 113 105 109 118 117 117 119 121 121 122 123 125 126 125 126 125 125 129 131 131 130 128 128 127 123 115 110 110 108 107 106 104 100 97 94 92 90 88 88 87 85
167 164 163 164 165 166 166 166 165 165 163 160 159 157 156 155 156 154 152 149 140 136 134 131 125 122 126 126 127 128 127 125 124 124 126 128 128 128 125 120 116 113 111 115 116 109 112 119 119 118 118 122 123 123 124 124 123 121 122 124 128 132 132 133 132 132 134 130 124 116 112 110 107 106 105 103 102 101 99 97 93 89 88 86 86
166 164 165 167 165 165 167 168 167 167 166 165 164 160 159 160 160 158 157 155 148 142 138 136 128 125 127 127 127 129 131 130 129 129 133 135 133 132 128 123 119 116 114 117 119 114 115 120 121 119 121 124 123 125 125 124 122 119 119 122 127 129 128 131 133 136 138 131 123 118 115 115 112 111 110 106 103 102 102 100 96 94 89 85 85
165 167 168 167 164 164 166 169 168 169 171 170 169 165 163 164 164 163 162 160 155 148 143 140 133 128 128 130 129 130 133 133 132 133 138 137 133 134 131 126 121 118 116 119 121 118 119 120 121 121 123 126 125 127 128 127 125 121 121 121 125 126 122 124 132 137 139 133 125 122 122 123 119 115 113 109 107 104 104 103 101 101 96 91 90
165 170 167 165 165 163 164 169 167 168 174 173 172 170 167 168 167 168 167 166 162 155 151 146 138 133 130 132 133 131 135 136 134 136 140 135 135 139 137 130 124 121 119 120 122 121 122 121 123 125 126 128 129 130 132 132 128 123 121 121 124 126 124 121 127 133 134 132 129 129 127 123 120 119 119 117 114 108 109 109 103 101 96 95 94
166 167 163 166 166 162 163 167 167 168 172 171 174 175 172 173 171 170 171 171 168 162 158 154 145 138 134 134 136 136 138 140 136 138 140 138 139 142 141 134 126 123 123 121 122 124 125 125 128 131 133 134 135 135 137 137 133 127 122 120 122 128 130 126 127 129 127 128 131 132 129 127 128 129 127 126 123 112 109 109 101 98 98 98 96
164 163 160 168 165 161 161 164 166 167 170 169 174 178 177 177 174 172 173 175 172 167 163 159 152 144 139 139 140 140 142 143 142 142 144 148 147 146 147 139 129 125 123 119 122 126 127 131 134 136 138 139 140 139 141 142 140 137 131 126 130 139 137 133 133 129 124 126 132 136 135 136 138 136 133 132 129 117 111 108 104 104 102 102 100
162 160 160 167 159 155 158 159 161 164 169 167 172 178 178 180 179 175 170 173 173 169 166 162 157 149 144 144 144 144 147 148 146 147 149 156 152 148 147 141 133 128 124 117 123 129 128 133 138 138 141 142 143 143 144 147 146 144 137 131 146 161 150 142 140 132 127 127 134 142 144 143 139 135 136 138 136 124 114 110 109 108 103 102 102
157 158 161 160 148 151 154 150 152 155 159 160 168 173 175 180 183 180 172 171 170 167 167 165 161 154 150 149 148 149 152 152 151 152 153 155 151 144 143 141 136 129 127 121 123 134 132 134 141 142 144 148 148 147 147 147 147 146 138 123 150 167 161 152 147 139 133 132 136 145 148 141 131 130 134 135 130 119 111 111 114 110 105 103 102
155 157 155 149 144 150 150 147 147 145 151 155 165 169 171 177 183 185 178 176 173 169 169 168 166 160 157 156 154 157 158 158 159 160 156 154 152 144 144 142 135 128 128 126 127 137 139 137 141 144 147 155 157 154 155 154 152 152 141 123 141 162 164 161 157 148 141 140 141 148 150 137 128 130 131 126 118 118 117 114 112 109 106 103 103
155 151 147 148 147 148 146 146 145 143 149 152 159 164 167 173 181 184 180 182 179 172 170 169 170 167 165 163 161 163 162 163 164 165 159 155 156 152 150 144 138 133 129 132 132 136 144 147 145 147 149 155 163 164 165 164 162 157 141 129 137 159 166 166 163 157 147 147 150 151 148 138 134 133 131 129 124 127 128 118 115 111 107 105 103
152 149 150 153 151 147 142 140 141 140 141 144 151 154 159 166 176 183 177 182 182 173 170 171 173 173 170 167 165 166 165 166 166 166 163 161 161 159 156 150 145 141 134 136 138 134 141 155 155 153 152 154 162 167 168 167 166 157 144 138 140 161 172 171 168 168 157 151 155 156 151 143 136 134 135 133 130 132 130 122 122 115 108 105 101
152 155 157 158 154 149 144 139 139 139 136 136 142 147 153 160 171 182 171 173 179 174 171 172 176 176 170 165 165 168 168 169 168 167 167 167 167 166 162 157 150 144 140 140 143 139 140 157 163 160 155 153 161 167 166 164 163 159 148 141 145 166 179 177 173 172 169 156 156 160 159 151 138 136 137 136 137 134 128 123 120 115 112 108 103
156 162 162 158 153 148 144 137 136 139 142 140 141 147 154 159 165 178 174 171 174 172 172 175 178 175 168 165 166 169 171 172 169 169 171 170 167 165 162 159 157 152 148 145 146 148 146 156 165 168 161 154 161 168 167 162 162 160 147 134 145 170 184 183 180 172 173 160 152 157 158 158 147 142 144 144 141 129 126 127 124 119 115 111 107
159 166 165 158 150 145 142 135 135 137 145 148 147 150 155 162 162 171 179 175 172 174 178 179 179 175 169 167 168 172 173 176 174 174 175 171 165 162 162 163 164 160 153 148 150 156 154 157 166 173 169 159 161 169 170 164 165 161 143 125 138 168 186 186 184 175 171 160 149 150 146 152 153 151 156 155 138 133 138 137 134 122 110 106 107
161 168 168 163 155 151 149 141 142 140 146 152 153 156 158 163 163 168 179 179 178 180 181 181 181 175 172 170 171 178 179 181 180 182 181 172 169 164 164 169 169 161 150 147 153 160 161 161 168 174 175 166 164 170 175 171 173 165 141 126 136 165 182 182 185 180 168 159 150 151 144 139 142 150 163 165 148 147 154 142 141 133 119 115 109
163 171 172 169 165 163 162 156 156 153 154 157 158 161 162 164 166 170 179 185 184 180 180 183 183 177 175 174 177 189 190 187 184 187 184 175 176 168 163 170 170 160 150 153 159 164 165 166 169 173 176 172 170 173 177 179 182 169 144 134 142 156 174 178 185 183 171 164 153 152 151 138 129 142 169 183 172 168 162 141 146 168 137 119 110
165 172 175 175 171 169 170 168 167 165 166 166 165 167 168 170 173 177 180 187 188 183 186 188 187 183 181 180 187 199 198 192 189 187 184 179 183 175 167 168 169 167 163 163 168 173 171 170 170 171 174 175 176 176 178 183 185 173 153 145 149 152 166 177 184 185 177 169 158 156 156 147 141 150 177 193 192 193 178 151 159 203 160 125 125
167 172 174 174 171 169 171 166 160 164 173 173 172 177 178 178 182 186 185 188 194 194 196 196 194 191 187 188 194 201 199 195 194 192 190 185 184 180 174 167 169 178 176 171 174 181 179 174 172 171 174 176 176 174 174 181 184 176 162 151 151 153 160 173 182 188 185 176 165 164 161 161 161 166 183 182 189 210 193 160 167 202 189 141 130
166 167 168 169 170 167 163 160 155 157 168 176 182 186 186 190 191 191 191 193 201 200 203 205 199 196 195 198 199 201 198 192 200 202 199 196 186 183 183 172 172 182 181 174 173 180 183 178 175 175 179 179 179 176 170 176 182 177 167 163 155 154 160 171 182 188 189 184 173 171 170 177 182 185 191 187 197 215 196 170 172 195 189 156 132
163 163 162 163 166 165 161 159 160 158 164 176 185 193 195 200 200 195 195 198 204 201 203 207 203 201 201 205 201 195 196 186 192 200 198 201 192 184 184 176 176 183 183 177 172 178 182 179 178 180 184 185 184 182 173 173 182 180 172 172 166 159 163 172 183 191 192 190 183 175 177 199 205 206 210 202 205 207 207 184 181 198 194 186 149
165 165 163 163 166 169 167 164 168 169 172 183 189 201 207 207 205 200 199 202 208 206 205 206 211 212 203 205 196 184 192 185 193 206 198 198 193 186 184 181 184 189 185 180 174 177 181 179 179 182 188 191 187 183 174 171 180 184 180 178 175 167 168 173 183 193 197 196 192 184 187 224 223 226 230 225 217 206 221 200 185 206 201 192 188
168 168 166 165 169 173 174 173 175 179 183 195 202 211 213 210 209 206 206 208 212 213 214 211 218 226 206 198 190 185 197 193 206 222 203 192 189 188 188 187 190 191 185 183 178 174 178 177 179 186 189 188 183 178 174 170 174 182 185 185 184 175 173 177 183 192 202 203 199 200 205 230 238 244 245 235 236 221 226 207 188 209 199 182 197
163 165 168 170 171 172 174 177 180 186 190 199 209 216 213 210 210 209 211 215 219 219 218 213 213 232 219 193 193 205 216 207 214 227 214 200 193 188 188 191 192 190 185 184 180 173 176 178 181 189 189 184 183 183 184 182 178 179 182 187 191 189 186 190 193 196 205 209 205 209 213 229 243 248 255 251 248 233 231 221 199 209 203 181 190
153 155 162 165 170 172 175 180 186 192 195 199 209 214 212 213 218 220 217 215 221 223 221 219 213 218 217 206 211 225 230 222 222 230 228 218 200 188 188 193 193 189 185 183 181 176 176 178 182 189 191 189 191 193 202 209 206 188 174 179 190 199 206 208 207 204 206 211 212 214 216 230 242 243 253 258 254 242 235 232 214 214 215 192 194
145 146 149 152 159 165 169 175 180 186 191 196 204 209 211 218 227 232 227 219 222 226 223 222 220 216 213 217 223 230 237 234 233 232 230 226 202 190 192 197 195 191 189 183 180 182 182 181 182 188 196 202 205 211 228 240 240 221 191 186 192 199 213 220 217 210 208 212 216 218 220 228 234 237 247 256 254 247 238 233 235 233 241 242 221
145 145 146 147 151 157 159 162 165 169 176 182 190 195 200 208 218 225 227 224 223 226 225 225 225 221 217 222 227 232 241 239 233 228 224 221 202 196 200 201 201 198 194 190 186 189 192 193 194 198 210 220 228 237 250 259 258 246 226 211 204 200 211 223 222 215 212 214 218 222 225 229 229 231 238 247 249 246 238 228 231 244 260 274 252
150 149 149 151 154 157 154 156 158 158 161 162 163 163 160 163 177 200 212 214 216 221 222 222 221 219 216 218 225 233 241 241 236 231 226 218 203 202 206 205 207 205 200 199 198 199 201 206 209 214 226 236 245 251 257 265 263 251 239 226 216 208 211 222 223 219 218 216 219 224 227 233 233 229 231 237 242 242 237 226 228 249 262 264 253
153 153 154 155 156 157 156 158 159 157 157 153 148 145 144 143 136 138 153 169 194 211 209 200 200 205 207 211 222 234 240 242 242 235 226 223 212 208 209 208 210 213 210 209 210 210 212 216 218 224 234 243 253 258 263 268 263 251 239 228 220 213 212 221 226 224 226 222 222 226 230 236 236 232 229 230 235 237 237 230 233 252 258 250 253
156 157 159 157 156 157 158 161 162 162 159 153 150 150 151 151 146 135 126 122 131 173 193 186 175 175 180 190 209 226 235 240 243 233 219 224 222 215 214 211 212 218 220 218 218 219 222 229 230 234 242 250 257 260 266 270 267 256 239 227 221 216 215 221 227 229 233 231 228 231 234 238 239 237 234 231 232 233 235 233 236 251 252 244 252
162 162 163 161 157 157 159 161 164 167 161 157 157 157 160 158 156 151 140 125 115 124 150 163 160 158 164 172 187 204 214 226 236 233 224 222 222 222 220 218 218 223 226 224 225 225 226 236 239 244 250 256 261 264 267 268 267 260 241 227 221 218 220 223 228 233 238 239 236 237 238 238 239 240 239 236 234 231 233 233 236 245 249 248 254
168 166 165 162 161 162 164 163 164 166 163 161 159 156 159 157 157 162 160 143 118 116 117 129 144 147 160 176 187 196 198 211 234 238 235 222 219 225 222 221 223 226 231 230 230 231 229 235 241 248 256 262 267 269 269 267 266 263 246 230 223 220 222 225 229 233 238 241 242 242 241 240 241 242 241 241 239 236 234 233 235 240 245 248 254
174 170 166 165 167 168 171 171 167 167 165 161 160 155 149 143 134 143 156 152 121 122 127 124 124 121 126 153 185 203 209 212 225 238 246 237 228 230 225 221 220 220 233 237 233 233 232 236 241 246 257 269 275 276 273 266 267 265 248 232 226 223 224 227 230 234 236 239 243 245 245 244 243 242 242 243 242 242 238 235 235 238 242 246 250
176 173 171 172 173 173 176 175 171 172 169 164 163 157 148 138 124 124 138 147 133 131 141 137 130 126 126 134 171 189 194 211 220 221 235 238 225 231 227 220 216 209 223 237 236 234 233 237 242 241 248 268 277 276 269 263 265 264 246 233 229 226 226 230 233 236 237 239 242 244 247 248 246 243 243 245 244 244 242 238 236 236 240 244 249
175 173 173 174 173 174 178 177 175 174 170 166 162 154 148 139 130 131 140 142 132 130 142 147 145 145 138 131 149 168 174 201 222 221 217 199 183 242 230 218 213 209 216 225 229 229 227 231 239 240 247 266 275 273 272 266 264 263 246 235 231 227 227 230 233 236 238 240 242 243 246 250 250 246 244 246 247 245 244 241 238 236 238 241 245
173 172 172 172 170 171 177 179 177 173 168 164 157 152 149 145 142 142 141 137 133 136 149 159 163 164 156 152 156 158 162 174 190 217 268 311 358 358 277 227 208 198 227 227 225 226 224 227 235 241 247 259 267 274 281 274 264 264 251 239 234 228 226 229 233 236 238 240 242 244 246 249 251 251 248 247 247 246 246 244 241 239 239 240 243
172 174 172 171 169 171 177 179 178 174 170 164 158 155 153 151 151 149 144 141 143 151 163 172 179 187 190 189 185 174 167 164 158 159 156 4 33 39 318 266 236 169 132 161 213 230 231 235 237 240 243 249 258 268 279 277 269 270 256 240 237 233 228 229 232 235 238 241 242 243 245 247 250 252 252 251 249 248 248 248 245 243 241 241 242
174 176 173 170 170 172 176 177 177 177 174 169 164 161 160 158 157 154 150 143 140 144 151 156 163 177 184 186 192 195 188 177 164 161 167 155 94 97 93 310 241 195 182 130 101 109 223 256 247 249 253 256 261 257 253 258 254 260 265 250 243 242 235 232 235 237 239 240 242 244 245 246 248 251 254 254 253 251 250 251 250 247 244 243 243
176 176 174 171 170 172 175 175 175 176 176 174 171 169 167 167 164 157 150 142 139 140 141 142 135 134 154 165 172 186 206 184 153 147 150 148 132 113 101 98 114 124 126 109 94 90 78 42 358 304 284 274 275 266 255 250 234 238 271 279 246 242 243 241 241 243 243 242 242 243 246 247 248 250 252 254 255 255 254 254 253 251 248 246 245
177 176 176 174 172 174 175 175 173 173 176 178 178 177 176 176 176 168 156 148 150 153 155 165 174 169 163 168 177 200 276 146 134 130 132 133 132 126 108 100 93 84 79 83 82 80 76 59 32 19 360 304 292 285 272 264 246 227 242 274 233 171 244 251 247 247 247 245 244 244 247 249 250 250 251 253 256 259 259 258 256 255 252 249 248
181 180 181 177 174 177 178 176 174 174 177 180 182 186 185 185 185 177 165 159 160 164 170 181 192 197 189 185 176 78 114 148 137 129 134 137 135 141 136 127 104 78 68 70 75 73 72 70 51 37 39 23 337 315 298 280 250 233 228 224 119 196 242 257 284 256 248 245 246 248 249 250 251 251 252 254 257 259 261 260 260 259 256 253 251
189 187 184 179 177 179 181 179 178 177 179 183 188 193 193 187 183 179 174 171 173 176 177 179 189 198 196 190 145 92 98 150 159 150 145 148 149 152 149 138 132 102 80 73 78 70 62 65 60 50 49 42 23 6 352 341 282 248 246 240 232 266 312 329 328 287 270 256 252 252 253 255 255 253 253 255 258 259 260 260 262 262 261 258 255
195 190 184 181 180 182 183 183 182 181 182 187 193 199 196 187 184 183 182 182 183 181 177 177 185 200 206 195 158 120 102 130 156 154 137 140 144 140 127 121 117 105 92 81 77 70 62 59 55 52 51 43 31 29 19 11 7 326 298 275 258 265 290 319 316 332 325 291 270 264 261 260 259 257 256 256 257 259 260 261 262 264 263 262 259
195 190 185 185 185 185 186 187 186 185 186 190 197 202 197 188 187 188 188 191 192 183 178 181 186 202 212 196 172 159 136 134 148 153 142 141 146 134 129 133 122 101 86 75 70 66 62 57 50 47 46 41 34 30 25 19 14 2 357 348 306 285 282 286 282 277 289 304 300 289 280 273 266 262 260 260 259 259 261 263 264 264 265 264 262
195 192 189 188 188 188 189 191 191 189 189 194 200 201 195 190 189 192 192 195 195 186 182 186 190 197 202 189 175 171 166 157 156 164 167 149 111 103 114 123 112 91 80 75 67 56 45 38 32 29 27 33 35 32 28 22 16 6 2 360 347 332 320 306 291 272 252 257 281 288 292 296 288 277 270 265 263 261 262 265 267 267 266 265 264
196 194 190 189 190 190 192 194 194 193 192 196 198 195 193 191 192 194 196 196 193 189 189 192 196 196 193 187 179 172 173 176 175 177 196 95 76 87 90 91 86 74 66 58 49 39 31 25 19 15 11 13 17 22 26 20 14 16 13 8 356 344 338 329 310 293 268 254 259 267 283 293 292 285 282 278 273 267 263 265 268 269 266 266 265
196 193 191 193 192 191 194 196 197 196 195 197 196 193 193 195 195 196 199 198 195 194 194 195 198 197 192 187 183 179 178 186 195 201 224 105 91 84 74 67 57 46 39 31 23 18 15 10 4 360 359 2 2 3 8 8 5 5 10 13 7 356 343 328 318 314 298 273 275 274 273 278 279 281 284 284 280 275 269 268 272 272 269 268 268
Height
786 787 787 787 788 788 789 790 790 791 791 792 793 794 795 796 796 797 797 798 798 799 800 801 801 802 802 802 802 802 802 803 803 804 805 806 806 807 808 809 809 810 810 810 810 810 811 811 811 812 812 813 813 813 814 815 816 816 816 816 817 817 817 817 817 818 820 821 822 823 824 824 824 824 824 825 825 824 824 824 824 824 824 825 825
784 786 787 787 788 788 790 790 791 791 792 793 794 795 796 797 797 798 798 799 799 800 801 802 803 803 803 803 804 804 804 804 805 805 806 807 807 808 809 810 810 811 810 810 811 811 811 811 812 813 813 814 814 814 815 816 816 817 817 817 818 818 819 818 818 818 820 822 823 824 825 825 826 825 825 825 825 825 825 825 825 825 825 826 826
783 786 786 787 788 789 789 790 791 792 793 793 794 795 796 797 798 799 799 800 800 801 802 803 804 804 805 805 805 805 806 806 807 807 808 809 809 809 809 810 811 811 811 811 811 812 812 812 813 814 814 815 815 816 816 817 817 818 818 818 819 819 820 819 819 819 821 823 824 825 825 826 827 827 826 826 826 826 826 826 826 826 826 827 827
784 785 786 787 788 789 790 791 792 792 793 793 795 796 797 798 799 800 800 801 802 803 803 804 805 805 806 806 806 807 807 808 808 809 809 810 810 810 810 811 811 812 812 812 812 813 813 813 814 815 815 816 816 817 817 818 818 819 819 819 819 820 820 820 820 820 821 823 824 825 826 827 828 828 828 828 827 827 827 827 828 828 828 828 828
784 785 786 787 788 789 790 791 792 793 793 794 795 796 798 798 799 800 801 802 803 804 805 805 806 807 807 807 808 808 809 809 810 810 811 811 812 812 812 812 812 812 812 813 813 814 814 814 814 815 816 817 818 818 818 819 819 820 820 820 820 821 821 821 821 821 822 824 825 826 827 828 828 829 829 829 828 828 828 829 829 829 829 829 829
784 785 786 787 788 789 790 791 792 793 794 794 795 796 798 799 800 801 802 803 804 805 805 806 807 808 808 809 809 809 810 810 811 812 812 812 813 813 813 813 813 813 813 814 814 815 815 815 815 816 817 818 819 819 819 820 820 820 821 821 821 822 822 822 822 822 823 824 826 827 828 829 829 830 830 830 830 829 829 829 830 830 830 830 830
784 786 787 787 788 789 790 791 792 793 794 795 796 797 798 799 800 801 803 804 805 805 806 807 807 808 809 810 810 811 811 811 812 812 813 813 813 814 814 814 814 814 814 814 815 815 816 816 816 817 818 819 819 820 820 821 821 821 822 822 823 823 823 824 823 823 824 825 826 827 828 829 830 831 831 832 831 831 830 830 831 831 831 831 831
785 786 787 788 789 790 791 792 793 794 794 796 796 797 798 800 801 802 803 804 805 806 807 807 808 808 809 810 811 812 812 813 813 813 814 814 814 815 815 815 815 815 815 815 816 816 816 817 817 818 819 820 820 821 821 822 822 822 823 823 824 824 824 825 825 825 825 826 827 828 829 830 831 831 832 832 833 832 831 831 831 832 832 832 832
786 787 788 789 789 790 791 792 793 794 795 796 797 798 798 800 801 802 803 804 805 806 807 808 808 809 810 811 812 813 813 814 814 814 815 815 815 816 816 816 815 816 816 816 817 817 817 818 818 819 820 821 821 822 822 823 823 823 823 824 825 825 825 826 826 826 826 827 828 829 829 830 831 832 833 833 833 833 832 832 832 832 832 832 832
787 787 788 789 790 791 792 793 793 794 795 796 797 798 799 800 801 802 803 804 805 806 807 808 809 809 810 811 812 813 814 815 815 815 815 816 816 817 817 817 817 817 817 817 818 818 818 818 819 820 821 821 822 823 823 823 824 825 825 825 826 826 826 827 827 827 828 828 829 829 830 831 832 833 833 834 833 833 833 833 832 832 833 833 832
787 788 789 790 791 791 792 793 794 795 796 797 798 798 800 800 801 803 804 805 806 807 808 809 810 810 811 811 812 813 814 815 815 815 816 816 817 817 818 818 818 818 818 818 819 819 819 819 820 821 822 822 824 824 824 825 825 826 826 827 827 827 827 828 828 829 829 830 830 830 831 831 832 833 834 834 834 834 834 834 834 833 833 833 833
788 789 789 791 791 792 793 793 794 795 796 797 798 799 800 801 802 803 804 806 806 808 809 810 810 811 811 812 813 813 814 814 815 815 816 817 817 817 818 819 819 819 819 820 820 821 820 821 821 822 823 824 825 825 826 826 827 827 827 828 828 828 829 829 829 830 831 831 831 832 832 832 833 834 834 835 835 835 835 835 835 834 834 833 833
788 789 790 792 792 793 793 794 795 796 797 798 799 800 801 801 802 803 804 806 807 808 809 810 811 811 812 812 813 813 814 814 815 815 816 817 817 817 819 820 820 819 820 820 821 822 822 822 822 823 824 825 826 826 827 827 828 828 828 828 828 828 829 830 831 831 832 832 833 833 833 834 834 835 835 836 836 836 836 836 836 835 835 834 834
788 790 791 793 793 793 793 795 795 796 798 799 800 800 801 802 802 803 804 806 807 808 809 811 811 812 812 813 813 813 814 815 815 815 816 817 818 818 819 820 821 820 821 821 822 823 824 823 823 824 824 825 826 827 828 828 828 828 829 828 828 829 830 831 832 832 833 833 834 834 835 835 835 836 836 836 837 837 838 837 837 837 836 836 835
789 791 793 793 793 794 794 795 796 797 798 799 800 801 802 802 803 804 805 806 807 808 809 811 811 812 812 813 813 814 814 815 815 816 816 817 818 819 819 820 821 821 822 822 822 823 825 824 824 824 825 826 827 828 828 828 829 829 829 829 829 829 830 831 832 833 834 834 835 835 836 836 836 837 837 837 838 838 838 838 838 838 837 837 837
790 792 793 793 794 794 795 796 797 798 799 800 801 801 802 803 803 804 806 806 807 809 809 811 811 812 813 813 814 814 815 815 816 816 817 818 818 819 820 820 821 822 822 823 823 824 825 825 825 825 825 826 827 828 828 829 829 830 830 830 830 830 831 832 833 834 835 835 836 836 837 837 837 838 838 838 838 838 839 839 839 839 839 839 838
791 792 793 794 794 795 796 797 797 799 799 800 801 802 802 803 804 804 806 807 808 809 810 811 812 812 813 813 814 814 815 816 816 817 818 818 819 819 820 820 821 822 823 823 823 824 825 826 826 826 825 826 827 828 829 829 829 830 830 830 830 830 831 832 833 834 835 836 836 837 837 838 838 839 839 839 839 839 839 840 840 839 839 840 840
792 793 793 794 795 796 797 797 798 800 800 801 801 802 803 804 805 805 806 807 808 809 810 811 812 813 813 814 814 815 816 816 817 817 818 819 819 820 820 820 821 822 822 823 824 824 825 826 826 826 826 826 827 828 829 830 830 830 830 830 830 831 831 832 834 835 836 836 837 837 837 838 838 839 839 839 839 840 840 840 840 840 840 840 840
792 793 794 795 796 797 797 798 799 800 801 801 802 803 803 804 805 806 806 807 809 810 811 812 812 813 814 814 815 816 816 817 817 818 818 819 820 820 820 821 821 822 822 823 824 824 825 826 826 826 826 826 826 828 829 830 830 830 831 831 831 831 832 833 834 835 836 836 837 837 837 838 838 839 839 840 840 840 840 841 841 841 841 841 841
792 793 794 795 796 797 798 799 800 800 801 802 803 803 804 805 806 806 807 808 809 810 811 812 813 813 814 815 816 816 817 817 818 818 818 819 820 820 821 821 821 822 822 823 824 824 825 825 826 826 826 826 826 828 829 830 830 831 831 831 831 832 832 833 834 835 836 836 837 837 837 838 838 839 839 840 840 841 841 841 841 841 841 841 842
793 793 794 795 796 797 798 799 800 800 801 802 804 804 805 805 806 807 808 809 809 810 811 812 813 814 814 815 816 817 817 817 818 818 819 819 820 820 821 821 821 822 822 823 824 825 825 825 825 826 826 827 826 827 829 830 830 831 831 831 831 832 833 833 835 836 836 837 837 837 838 838 838 838 839 839 840 840 841 841 841 841 841 842 842
792 793 794 795 796 797 798 799 800 801 802 803 804 804 805 806 807 807 808 809 810 811 811 812 813 814 815 815 816 816 817 817 818 819 819 819 820 820 821 821 821 822 822 823 824 825 825 825 825 825 826 826 826 827 828 829 830 831 832 831 831 832 833 834 835 837 837 837 837 838 838 838 838 838 839 839 839 840 840 841 842 841 841 842 842
792 793 794 795 797 798 798 799 800 801 802 803 804 804 805 806 807 808 808 809 810 811 811 812 813 814 815 815 815 816 817 817 818 819 819 820 820 821 821 821 821 822 822 822 823 824 825 825 825 825 825 826 826 827 828 829 830 831 832 832 832 832 833 834 836 837 837 838 838 838 839 839 839 839 839 839 839 839 840 841 842 842 842 842 842
791 792 794 795 797 798 799 800 801 802 802 803 804 805 806 806 807 808 809 810 810 811 811 812 813 814 815 815 815 817 817 817 818 819 820 821 821 821 822 821 822 822 822 822 822 823 824 825 825 825 825 825 826 826 827 829 830 831 832 832 832 832 833 834 836 837 838 838 839 839 839 839 839 839 839 839 839 839 840 841 841 842 842 842 842
791 793 794 796 797 798 799 800 801 802 802 803 804 805 806 806 807 808 809 810 810 811 811 812 812 813 814 815 816 817 817 817 818 819 820 821 821 822 822 822 822 822 822 822 822 823 824 824 825 825 825 825 826 826 827 828 829 831 832 832 832 833 833 834 835 837 837 838 839 839 839 840 840 840 840 840 840 840 840 840 841 842 842 842 842
792 793 794 796 797 799 800 801 802 802 803 804 804 805 806 807 807 808 809 810 810 811 811 812 812 813 814 815 816 816 817 817 817 818 818 819 821 822 822 823 823 823 822 822 822 823 824 824 825 825 825 825 826 826 827 828 829 830 832 832 833 833 834 834 835 836 837 838 839 839 840 840 840 840 840 840 840 840 840 841 841 841 842 842 842
792 793 795 796 797 799 800 801 802 802 803 804 804 805 806 807 808 808 809 810 811 811 812 812 812 813 813 814 815 816 816 816 817 818 818 819 820 821 822 822 823 823 823 823 823 823 824 825 825 825 825 826 826 826 827 828 829 830 832 832 833 833 834 834 835 836 837 838 838 839 839 840 840 840 840 840 841 841 841 841 841 841 842 842 843
792 793 795 796 798 799 800 801 802 803 803 804 804 805 806 807 808 809 810 810 811 811 812 812 813 813 813 814 815 815 815 816 817 817 818 819 819 819 820 822 823 823 823 824 824 824 824 825 826 826 826 826 827 827 827 828 829 830 831 832 833 834 834 835 835 835 836 837 838 839 839 839 840 840 840 840 841 841 841 841 841 841 841 842 843
792 793 795 796 798 799 800 801 802 803 803 804 805 805 806 807 808 809 809 810 810 811 812 813 813 813 814 814 814 815 815 816 817 817 816 817 818 818 819 821 822 823 823 823 824 825 825 825 826 827 827 827 827 827 828 829 829 830 831 832 833 834 834 835 835 835 836 837 837 838 839 839 839 840 840 840 841 841 841 841 841 841 841 841 842
792 794 795 797 798 799 800 801 802 803 803 804 805 805 806 807 808 809 809 810 810 811 812 812 813 814 814 814 814 814 814 815 816 816 816 816 817 818 819 820 821 822 822 823 824 825 826 826 826 827 827 828 828 828 828 829 829 830 831 832 833 834 834 834 834 835 835 836 837 837 838 839 839 840 840 840 841 841 841 841 841 841 841 841 841
793 794 795 797 798 799 800 801 802 803 803 804 805 806 807 807 808 808 809 810 810 811 812 812 813 813 814 814 813 813 813 814 816 816 816 817 817 817 818 819 820 821 822 822 823 824 825 826 827 827 828 828 828 828 828 829 829 830 831 831 832 833 833 834 834 834 834 835 836 837 837 838 838 839 840 840 840 840 841 841 841 841 841 841 841
792 794 795 797 798 799 800 801 802 802 804 804 805 806 807 807 808 808 809 809 810 811 811 812 813 813 813 813 813 813 813 814 815 815 816 817 817 817 817 818 818 820 821 822 822 823 825 826 826 827 828 828 828 829 829 829 829 830 830 831 831 832 832 833 833 834 834 834 835 836 836 837 837 838 839 839 840 840 840 841 841 841 841 841 841
792 793 795 796 797 799 800 801 802 803 804 805 806 807 807 808 808 808 809 810 810 810 811 812 812 813 813 813 813 812 812 813 813 814 815 816 816 816 817 817 818 819 820 821 821 822 824 825 825 826 827 828 828 828 829 829 829 829 830 830 831 831 832 833 833 833 834 834 834 835 836 836 837 837 837 838 838 839 839 840 840 841 841 841 841
791 793 794 796 797 798 799 801 802 803 804 805 806 807 807 808 808 809 809 810 810 810 811 812 812 812 813 813 812 812 812 812 812 813 814 814 815 815 816 816 817 818 819 820 821 822 823 824 825 825 826 827 828 828 828 828 828 829 829 830 830 831 831 832 833 833 833 834 834 835 835 836 836 836 837 837 837 838 838 839 840 840 840 840 841
789 792 793 795 796 798 799 800 802 803 804 805 806 807 808 808 809 809 810 810 810 811 811 812 812 813 812 812 812 812 812 811 812 812 813 814 814 814 815 816 817 818 818 819 820 821 822 823 824 825 826 827 827 827 828 827 828 828 828 829 829 830 830 831 832 832 833 833 833 833 834 835 835 836 836 836 836 836 837 838 838 839 840 840 840
788 790 792 794 796 797 798 800 801 802 804 805 806 807 808 809 809 810 810 811 811 811 812 812 813 813 812 812 812 812 812 811 812 812 813 814 814 814 814 815 817 818 818 819 820 820 821 822 824 825 826 826 826 826 826 826 826 826 827 827 828 829 829 830 831 831 832 832 832 832 833 833 834 835 835 835 835 835 836 836 837 838 839 840 840
786 788 790 792 794 796 798 799 800 802 803 805 806 807 808 809 809 810 811 811 812 812 812 813 813 813 813 813 813 813 813 812 812 813 814 814 814 814 815 816 817 817 818 818 818 819 821 822 823 824 825 825 825 825 825 825 825 825 825 826 827 827 828 828 829 830 831 831 831 831 831 832 833 833 834 834 834 835 835 835 836 837 838 839 839
785 787 788 791 793 795 797 799 800 802 803 804 805 807 808 809 810 811 811 812 812 812 813 813 813 814 814 814 814 814 814 813 813 813 814 814 814 814 815 816 817 817 818 818 818 819 820 822 822 823 824 825 825 825 824 824 823 823 823 824 825 825 826 827 828 828 829 829 829 830 830 830 831 832 832 833 833 834 834 835 835 836 837 837 838
785 786 788 790 792 795 797 799 800 802 803 804 805 806 808 809 810 811 812 812 812 813 813 814 814 814 814 814 814 814 815 814 814 814 814 814 814 814 814 815 816 817 817 817 817 818 819 820 821 822 824 824 824 823 823 822 823 822 822 822 823 824 825 826 826 827 827 827 828 828 829 829 830 830 831 832 832 833 833 834 834 835 835 836 837
785 786 788 790 792 794 797 799 800 802 803 804 805 806 808 809 810 811 812 812 813 813 814 814 814 815 815 815 815 815 815 815 815 814 814 815 814 814 814 814 815 816 817 817 817 817 818 819 820 821 822 823 822 821 821 821 822 822 822 822 822 822 823 824 825 825 825 826 826 827 827 828 828 829 830 830 831 831 832 833 833 834 834 835 836
785 786 787 789 791 793 796 798 800 802 803 803 804 805 807 808 810 811 812 812 813 813 814 814 815 815 815 816 816 816 816 816 816 815 815 815 815 815 815 814 815 816 817 817 817 817 818 818 818 819 821 822 821 819 819 821 822 821 821 821 821 821 822 822 823 823 824 824 824 825 825 826 827 827 828 829 830 830 830 831 832 832 833 834 834
784 785 786 788 790 793 795 797 798 801 802 804 805 805 806 808 809 811 811 812 813 813 814 814 815 815 815 816 816 816 817 817 817 816 816 816 817 817 816 816 816 816 817 817 817 817 817 817 817 818 819 820 819 818 819 821 822 823 823 821 820 821 821 821 821 821 822 822 823 823 824 824 825 826 827 827 828 828 829 830 830 831 832 832 833
782 784 786 787 789 792 794 797 798 800 802 803 805 806 806 808 809 811 812 813 813 814 814 814 815 815 816 816 817 817 817 817 817 817 818 818 818 818 818 817 817 817 817 817 817 817 817 817 817 817 817 817 817 817 818 820 822 825 826 823 821 821 821 820 819 820 820 821 821 822 822 822 823 824 825 825 826 826 827 828 828 829 830 830 831
782 783 785 786 788 791 793 796 797 799 801 803 804 806 807 808 809 811 812 813 813 814 814 815 815 815 816 817 817 817 817 818 818 818 818 819 819 819 819 818 818 818 818 817 817 818 818 819 818 817 816 816 817 816 818 819 821 824 826 824 821 822 822 820 818 818 818 819 819 820 820 820 821 822 823 823 824 824 825 826 826 827 828 828 829
781 780 781 783 786 789 792 795 796 798 800 802 804 805 806 807 808 810 812 813 813 814 814 814 815 815 816 817 817 817 818 818 818 819 819 819 819 819 819 819 819 818 818 818 818 818 819 820 819 818 817 817 817 817 818 818 819 821 823 823 822 822 821 819 818 817 816 817 817 817 818 819 819 820 820 821 821 822 823 823 824 825 825 826 827
778 778 779 781 785 788 791 793 795 797 799 801 803 804 805 806 807 809 810 811 812 813 814 814 815 815 816 817 817 817 818 818 818 819 819 819 820 820 820 819 819 819 819 819 819 819 819 819 819 818 817 817 817 817 818 818 819 820 820 820 821 821 820 819 819 818 816 815 815 816 816 817 818 818 818 819 819 820 820 821 822 822 823 823 824
776 778 780 782 784 787 790 792 794 795 798 800 801 803 804 805 805 806 808 810 811 812 813 814 815 816 816 817 817 817 818 818 818 819 819 820 820 820 820 820 819 819 819 819 819 819 819 819 818 818 818 818 817 817 818 818 818 819 819 819 819 820 821 821 821 820 818 816 815 815 816 816 816 817 817 817 817 818 818 819 819 820 820 821 822
775 778 780 781 784 787 789 792 793 795 796 798 800 801 802 804 804 805 807 808 810 812 813 814 815 815 816 817 817 818 818 818 818 819 819 820 820 820 820 820 820 820 819 819 819 819 819 819 819 818 818 818 818 817 818 818 818 818 818 818 818 819 820 820 820 821 821 820 817 815 815 815 815 815 815 815 815 816 816 817 817 818 818 818 819
774 775 777 780 783 786 789 791 793 794 795 797 799 800 801 802 803 804 806 808 810 811 812 813 814 815 816 817 817 818 818 818 819 819 819 820 820 820 820 820 820 820 820 819 819 819 819 819 819 819 818 818 818 818 818 818 818 819 818 818 818 818 818 818 819 820 820 821 819 816 815 815 814 814 814 814 814 814 815 815 815 815 816 816 817
773 775 778 780 783 786 788 790 792 793 795 796 798 799 800 801 802 803 804 806 808 810 811 812 814 815 815 816 817 817 818 818 819 819 819 820 820 820 820 820 820 820 820 820 820 819 819 819 819 819 819 819 819 818 818 818 818 819 819 819 818 818 818 818 818 819 819 819 819 818 816 816 815 813 813 813 813 813 813 813 813 813 814 814 814
774 777 778 780 782 784 786 788 791 792 793 795 797 798 799 800 801 802 803 805 807 809 810 811 813 814 815 815 816 817 818 818 819 819 820 820 820 821 821 821 821 821 821 820 820 820 819 819 819 819 819 819 819 819 819 819 818 818 818 819 819 819 819 819 819 819 819 819 819 817 816 816 815 812 811 812 812 812 812 812 812 812 812 812 812